Location: Dampvalley
(47.9094°N, 6.1967°E)
Time: 21:56:33
(UTC+00:00)

Envisat - Pass Details

Date: 05 December 2022
Orbit: 763 x 765 km, 98.2° (Epoch: 04 February)

Event Time Altitude Azimuth Distance (km) Brightness Sun altitude
Rises 04:44:14 0° 7° (N) 3,246 6.2 -23.2°
Reaches altitude 10° 04:46:41 10° 360° (N) 2,315 5.4 -22.8°
Enters shadow 04:48:41 22° 346° (NNW) 1,632 4.5 -22.5°
